TimeEST,TemperatureF,Dew PointF,Humidity,Sea Level PressureIn,VisibilityMPH,Wind Direction,Wind SpeedMPH,Gust SpeedMPH,PrecipitationIn,Events,Conditions,WindDirDegrees,DateUTC
12:15 AM,46.4,46.4,100,30.21,10.0,Calm,Calm,-,N/A,,Clear,0,2012-12-15 05:15:00
12:35 AM,46.4,46.4,100,30.19,10.0,Calm,Calm,-,N/A,,Clear,0,2012-12-15 05:35:00
12:55 AM,48.2,46.4,93,30.18,10.0,Calm,Calm,-,N/A,,Clear,0,2012-12-15 05:55:00
1:15 AM,50.0,46.4,87,30.17,10.0,Calm,Calm,-,N/A,,Clear,0,2012-12-15 06:15:00
1:35 AM,50.0,46.4,87,30.17,10.0,Calm,Calm,-,N/A,,Clear,0,2012-12-15 06:35:00
1:55 AM,48.2,46.4,93,30.17,10.0,Calm,Calm,-,N/A,,Clear,0,2012-12-15 06:55:00
2:15 AM,48.2,46.4,93,30.17,10.0,Calm,Calm,-,N/A,,Clear,0,2012-12-15 07:15:00
2:35 AM,46.4,46.4,100,30.17,10.0,Calm,Calm,-,N/A,,Clear,0,2012-12-15 07:35:00
2:55 AM,46.4,46.4,100,30.16,10.0,Calm,Calm,-,N/A,,Clear,0,2012-12-15 07:55:00
3:15 AM,48.2,46.4,93,30.17,10.0,Calm,Calm,-,N/A,,Clear,0,2012-12-15 08:15:00
3:35 AM,46.4,46.4,100,30.18,10.0,Calm,Calm,-,N/A,,Clear,0,2012-12-15 08:35:00
3:55 AM,46.4,46.4,100,30.18,10.0,Calm,Calm,-,N/A,,Clear,0,2012-12-15 08:55:00
4:15 AM,46.4,46.4,100,30.18,10.0,Calm,Calm,-,N/A,,Clear,0,2012-12-15 09:15:00
4:35 AM,46.4,46.4,100,30.19,10.0,Calm,Calm,-,N/A,,Clear,0,2012-12-15 09:35:00
4:55 AM,48.2,46.4,93,30.17,10.0,Calm,Calm,-,N/A,,Clear,0,2012-12-15 09:55:00
5:15 AM,48.2,46.4,93,30.17,10.0,Calm,Calm,-,N/A,,Clear,0,2012-12-15 10:15:00
5:35 AM,48.2,46.4,93,30.16,10.0,Calm,Calm,-,N/A,,Clear,0,2012-12-15 10:35:00
5:55 AM,50.0,46.4,87,30.16,10.0,Calm,Calm,-,N/A,,Clear,0,2012-12-15 10:55:00
6:15 AM,48.2,48.2,100,30.17,10.0,Calm,Calm,-,N/A,,Clear,0,2012-12-15 11:15:00
6:35 AM,50.0,48.2,94,30.19,10.0,Calm,Calm,-,N/A,,Clear,0,2012-12-15 11:35:00
6:55 AM,50.0,48.2,94,30.19,10.0,Calm,Calm,-,N/A,,Clear,0,2012-12-15 11:55:00
7:15 AM,50.0,48.2,94,30.19,10.0,Calm,Calm,-,N/A,,Scattered Clouds,0,2012-12-15 12:15:00
7:35 AM,50.0,48.2,94,30.19,10.0,Calm,Calm,-,N/A,,Scattered Clouds,0,2012-12-15 12:35:00
7:55 AM,50.0,48.2,94,30.20,10.0,Calm,Calm,-,N/A,,Clear,0,2012-12-15 12:55:00
8:15 AM,50.0,48.2,94,30.21,10.0,Calm,Calm,-,N/A,,Clear,0,2012-12-15 13:15:00
8:35 AM,50.0,48.2,94,30.22,10.0,Calm,Calm,-,N/A,,Clear,0,2012-12-15 13:35:00
8:55 AM,51.8,50.0,94,30.23,10.0,Calm,Calm,-,N/A,,Clear,0,2012-12-15 13:55:00
9:15 AM,51.8,50.0,94,30.22,10.0,Calm,Calm,-,N/A,,Clear,0,2012-12-15 14:15:00
9:35 AM,53.6,50.0,88,30.23,10.0,Calm,Calm,-,N/A,,Clear,0,2012-12-15 14:35:00
9:55 AM,55.4,50.0,82,30.22,10.0,ESE,4.6,-,N/A,,Clear,120,2012-12-15 14:55:00
10:15 AM,57.2,50.0,77,30.23,10.0,East,3.5,-,N/A,,Clear,90,2012-12-15 15:15:00
10:35 AM,59.0,50.0,72,30.22,10.0,East,5.8,-,N/A,,Clear,80,2012-12-15 15:35:00
10:55 AM,59.0,48.2,67,30.24,10.0,ENE,4.6,-,N/A,,Clear,70,2012-12-15 15:55:00
11:15 AM,59.0,48.2,67,30.23,10.0,ENE,4.6,-,N/A,,Clear,70,2012-12-15 16:15:00
11:35 AM,60.8,48.2,63,30.22,10.0,East,4.6,-,N/A,,Clear,90,2012-12-15 16:35:00
11:55 AM,60.8,50.0,68,30.20,10.0,East,5.8,-,N/A,,Clear,100,2012-12-15 16:55:00
12:15 PM,62.6,50.0,63,30.18,10.0,ESE,4.6,-,N/A,,Clear,110,2012-12-15 17:15:00
12:35 PM,62.6,50.0,63,30.18,10.0,ESE,3.5,-,N/A,,Scattered Clouds,120,2012-12-15 17:35:00
12:55 PM,64.4,51.8,64,30.16,10.0,ENE,4.6,-,N/A,,Mostly Cloudy,70,2012-12-15 17:55:00
1:15 PM,64.4,51.8,64,30.15,10.0,East,5.8,-,N/A,,Scattered Clouds,80,2012-12-15 18:15:00
1:35 PM,66.2,53.6,64,30.13,10.0,East,5.8,-,N/A,,Mostly Cloudy,80,2012-12-15 18:35:00
1:55 PM,64.4,53.6,68,30.13,10.0,ESE,3.5,-,N/A,,Mostly Cloudy,120,2012-12-15 18:55:00
2:15 PM,64.4,53.6,68,30.11,10.0,Calm,Calm,-,N/A,,Mostly Cloudy,0,2012-12-15 19:15:00
2:35 PM,64.4,53.6,68,30.11,10.0,East,5.8,-,N/A,,Scattered Clouds,80,2012-12-15 19:35:00
2:55 PM,66.2,53.6,64,30.11,10.0,East,3.5,-,N/A,,Clear,90,2012-12-15 19:55:00
3:15 PM,68.0,53.6,60,30.11,10.0,ENE,3.5,-,N/A,,Clear,60,2012-12-15 20:15:00
3:35 PM,68.0,55.4,64,30.10,10.0,Calm,Calm,-,N/A,,Clear,0,2012-12-15 20:35:00
3:55 PM,68.0,55.4,64,30.10,10.0,ESE,4.6,-,N/A,,Clear,110,2012-12-15 20:55:00
4:15 PM,68.0,55.4,64,30.10,10.0,SE,3.5,-,N/A,,Clear,140,2012-12-15 21:15:00
4:35 PM,66.2,55.4,68,30.09,10.0,Calm,Calm,-,N/A,,Clear,0,2012-12-15 21:35:00
4:55 PM,66.2,55.4,68,30.10,10.0,SSE,3.5,-,N/A,,Clear,160,2012-12-15 21:55:00
5:15 PM,64.4,55.4,73,30.10,10.0,Calm,Calm,-,N/A,,Clear,0,2012-12-15 22:15:00
5:35 PM,64.4,55.4,73,30.10,10.0,Calm,Calm,-,N/A,,Clear,0,2012-12-15 22:35:00
5:55 PM,62.6,55.4,77,30.09,10.0,Calm,Calm,-,N/A,,Clear,0,2012-12-15 22:55:00
6:15 PM,60.8,55.4,82,30.08,10.0,Calm,Calm,-,N/A,,Clear,0,2012-12-15 23:15:00
6:35 PM,57.2,53.6,88,30.08,10.0,Calm,Calm,-,N/A,,Clear,0,2012-12-15 23:35:00
6:55 PM,55.4,53.6,94,30.10,10.0,Calm,Calm,-,N/A,,Clear,0,2012-12-15 23:55:00
7:15 PM,55.4,53.6,94,30.09,10.0,Calm,Calm,-,N/A,,Clear,0,2012-12-16 00:15:00
7:35 PM,53.6,53.6,100,30.09,10.0,Calm,Calm,-,N/A,,Clear,0,2012-12-16 00:35:00
7:55 PM,53.6,53.6,100,30.10,10.0,Calm,Calm,-,N/A,,Clear,0,2012-12-16 00:55:00
8:15 PM,51.8,51.8,100,30.10,10.0,Calm,Calm,-,N/A,,Clear,0,2012-12-16 01:15:00
8:35 PM,51.8,51.8,100,30.09,10.0,Calm,Calm,-,N/A,,Clear,0,2012-12-16 01:35:00
8:55 PM,51.8,51.8,100,30.09,10.0,Calm,Calm,-,N/A,,Clear,0,2012-12-16 01:55:00
9:15 PM,51.8,51.8,100,30.08,10.0,Calm,Calm,-,N/A,,Clear,0,2012-12-16 02:15:00
9:35 PM,50.0,50.0,100,30.08,10.0,Calm,Calm,-,N/A,,Clear,0,2012-12-16 02:35:00
9:55 PM,50.0,50.0,100,30.09,10.0,Calm,Calm,-,N/A,,Scattered Clouds,0,2012-12-16 02:55:00
10:15 PM,51.8,51.8,100,30.10,10.0,Calm,Calm,-,N/A,,Mostly Cloudy,0,2012-12-16 03:15:00
10:35 PM,51.8,51.8,100,30.10,10.0,Calm,Calm,-,N/A,,Mostly Cloudy,0,2012-12-16 03:35:00
10:55 PM,51.8,51.8,100,30.10,10.0,Calm,Calm,-,N/A,,Overcast,0,2012-12-16 03:55:00
11:15 PM,53.6,51.8,94,30.10,10.0,Calm,Calm,-,N/A,,Overcast,0,2012-12-16 04:15:00
11:35 PM,53.6,53.6,100,30.09,10.0,Calm,Calm,-,N/A,,Mostly Cloudy,0,2012-12-16 04:35:00
11:55 PM,53.6,53.6,100,30.09,10.0,Calm,Calm,-,N/A,,Scattered Clouds,0,2012-12-16 04:55:00